Weather in Novosheminsk

Russia / Republic of Tatarstan     55°03′41″N   51°13′26″E
temp.,
°C
wind,
m/s
gust,
m/s
humid.,
%
clouds,
%
prec.,
mm/h
press.,
hPa
HPBL,
m
24 june, thu
thu2400:00+20nne118751 0.0 101811
03:00+19ne22895 0.0 101918
06:00+22ese23835 0.6 1018177
09:00+26se226744 0.6 1018650
12:00+29ne11565 0.0 10181339
15:00+29n23525 0.0 10171759
18:00+28nne23672 0.0 1017104
21:00+23sw227673 0.2 101611
25 june, fri
fri2500:00+21wsw35885 0.1 101693
03:00+19wsw35935 0.6 101678
06:00+23wsw23845 0.6 1015123
09:00+28wnw356034 0.6 1015691
12:00+30nw45561 0.0 1014982
15:00+31nw565222 0.0 10141556
18:00+29w23688 0.0 101365
21:00+24wnw36820 0.0 101297
26 june, sat
sat2600:00+21nne22890 0.5 101336
03:00+20w1187100 2.3 101311
06:00+23wnw248389 0.0 1013200
09:00+26nnw466679 0.0 1013716
12:00+29nw45545 0.0 10131213
15:00+29nw46555 0.0 10121740
18:00+27nnw35735 0.4 1012114
21:00+22n11812 0.8 101211
27 june, sun
sun2700:00+21nw33855 0.0 101332
03:00+20nw11855 0.0 101311
06:00+23n12765 0.0 1014123
09:00+28w22610 0.0 1014660
12:00+30wnw22480 0.0 10141764
15:00+31nw124716 0.0 10131942
18:00+28nnw226846 0.1 101343
21:00+23wsw228214 1.0 101428
28 june, mon
mon2800:00+21w11909 0.3 101311
03:00+20ssw229017 0.3 101417
06:00+23sw12800 0.0 1014153
09:00+27ssw22630 0.0 1014638
12:00+30ssw33535 0.0 10141350
15:00+31sw23493 0.0 10131867
18:00+29s23630 0.0 101377
21:00+25sse11661 0.0 101311